Imagebearer’s Weblog

The Only Evangelism That Works: Be An Imagebearer

Mayberry Half Marathon Results November 12, 2011

OVERALL HALF MARATHON RESULTS
2011 Mayberry Half Marathon
Mount Airy, NC   11/12/2011   8:00 am
Partly cloudy, 32F temp at 8am start time.  Calm winds.
Directed by: Darren Lewis
Sponsored by: Good Life Cafe
Place Bib # Code Name City State Age Sex Time Pace Per Mile Pace Per K
---------- ------ ------ -------------- -------------------------- --------------------
   1.  088 H Lula Chomsky Hutchinson KS 23 F 1:19:06    6:02   3:45
   2.  058 H Andrew Howard Mount Airy NC 29 M 1:22:25    6:18   3:55
   3.  038 H Brett Dixon Greensboro NC 42 M 1:23:12    6:21   3:57
   4.  070 H Glenn Bailey West Jefferson NC 17 M 1:25:51    6:33   4:05
   5.  076 H Josh Rees-Jones West Jefferson NC 15 M 1:28:01    6:43   4:11
   6.  077 H Mitch Rees- Jones West Jefferson NC 15 M 1:31:06    6:57   4:20
   7.  089 H Peter Balogh Mount Airy NC 14 M 1:32:52    7:06   4:25
   8.  016 H Jan Kriska Mount Airy NC 44 M 1:33:55    7:10   4:28
   9.  044 H James Etringer Mount Airy NC 29 M 1:34:41    7:14   4:30
  10.  085 H Joey Slate Mount Airy NC 45 M 1:34:44    7:14   4:30
  11.  030 H Steve Driver Mount Airy NC 63 M 1:36:10    7:21   4:34
  12.  011 H Hector Hernandez Mount Airy NC 35 M 1:37:18    7:26   4:37
  13.   97 H Steve Garris Pilot Mountain NC 54 M 1:37:36    7:27   4:38
  14.  004 H Chastiny Sizemore Mount Airy NC 34 F 1:37:46    7:28   4:39
  15.   94 H Jack Gill Pulaski VA 63 M 1:38:24    7:31   4:40
  16.  024 H Ocean Tate Mount Airy NC 22 F 1:40:00    7:38   4:45
  17.  014 H Jeff Stowe Mount Airy NC 48 M 1:40:39    7:41   4:47
  18.  078 H Richard Griggs Statesville NC 31 M 1:42:35    7:50   4:52
  19.  090 H Dale Draughn Mount Airy NC 45 M 1:42:38    7:50   4:52
  20.  029 H Kyla Hill Cana VA 24 F 1:46:03    8:06   5:02
  21.  003 H David Sisk Winston - Salem NC 38 M 1:46:44    8:09   5:04
  22.  046 H Casey Thomas Mount Airy NC 28 M 1:47:03    8:10   5:05
  23.  027 H David Beatty Statesville NC 63 M 1:47:15    8:11   5:05
  24.  050 H Kevin Wright Dobson NC 27 M 1:47:25    8:12   5:06
  25.  092 H Jared Beverly Mount Airy NC 19 M 1:47:36    8:13   5:06
  26.  043 H Greg Gwyn Mount Airy NC 51 M 1:48:02    8:15   5:08
  27.  060 H Kara Evans Lowgap NC 30 F 1:48:54    8:19   5:10
  28.  056 H Joseph Sansone Franklin Square NY 22 M 1:49:07    8:20   5:11
  29.  012 H Kevin Pack Dobson NC 44 M 1:49:41    8:22   5:12
  30.   95 H Brian Miller Galax VA 33 M 1:50:21    8:25   5:14                                                                                                    Page 2
  31. 96 H Sandy Davis Galax VA 35 F 1:50:21 8:26 5:14
  32.   99 H Adam McComb State Road NC 37 M 1:50:30    8:26   5:15
  33.  053 H Kelsey Crook Lowgap NC 21 F 1:50:52    8:28   5:16
  34.  047 H Tim Hodges Elkin NC 41 M 1:51:33    8:31   5:18
  35.  083 H Nikki Galyean Mount Airy NC 27 F 1:52:29    8:35   5:20
  36.  026 H Perry Wagoner Mount Airy NC 40 M 1:53:51    8:42   5:24
  37.  075 H Thomas Parrish Mount Airy NC 55 M 1:56:18    8:53   5:31
  38.  040 H Greg Sidden State Road NC 40 M 1:56:36    8:54   5:32
  39.  034 H Cam Hayes Lowell OH 58 M 1:57:31    8:58   5:35
  40.  015 H Maria Kriska Mount Airy NC 43 F 1:57:35    8:59   5:35
  41.  061 H Kate Babcock Winston Salem NC 25 F 1:58:43    9:04   5:38
  42.  048 H Jeremy Sipes Kernesville NC 32 M 1:58:43    9:04   5:38
  43.  010 H Donald Surratt Mount Airy NC 65 M 1:59:10    9:06   5:39
  44. 091 H Kenneth Dickens Mount Airy NC 43 M 1:59:23 9:07 5:40
  45.  039 H Brent Cornelison Elkin NC 43 M 1:59:57    9:09   5:42
  46. 079 H Ronnie Collins Cana VA 46 M 2:00:17 9:11 5:43
  47.   93 H Barry Nelson Wilkesboro NC 37 M 2:00:41    9:13   5:44
  48.  033 H Heather Hayes Dublin OH 31 F 2:01:00    9:14   5:45
  49.  081 H Liz Whiston-Dean Pulaski VA 43 F 2:01:18    9:16   5:45
  50.  080 H Jerry Chapman Mount Airy NC 46 M 2:03:03    9:24   5:50
  51.  082 H Jodi Cox Mount Airy NC 29 F 2:04:17    9:29   5:54
  52.  045 H David Surratt Mount Airy NC 68 M 2:04:27    9:30   5:54
  53.  049 H Amanda Gray Mount Airy NC 36 F 2:05:08    9:33   5:56
  54.  007 H Tim Lyles High Point NC 48 M 2:07:01    9:42   6:02
  55.  068 H Michael Hoffert Raleigh NC 21 M 2:07:30    9:44   6:03
  56.  067 H Sarah Hennis Raleigh NC 21 F 2:07:31    9:44   6:03
  57.  006 H Dana Draughn Mount Airy NC 41 F 2:08:01    9:46   6:05
  58.  013 H Donna Stowe Mount Airy NC 43 F 2:09:36    9:54   6:09
  59.  087 H Robin Horton Mount Airy NC 45 F 2:11:29    10:02   6:14
  60.  086 H David Horton Mount Airy NC 49 M 2:11:30    10:02   6:14                                                                                                    Page 3
  61.  102 H Shelley Anderson King NC 37 F 2:12:55    10:09   6:18
  62.  028 H Rita Horton Mount Airy NC 55 F 2:13:54    10:13   6:21
  63.  032 H Amy Miller Salesville OH 24 F 2:14:54    10:18   6:24
  64.  031 H Mike Neff Cambridge OH 26 M 2:14:54    10:18   6:24
  65.  008 H Lorrie Mash West Jefferson NC 46 F 2:15:22    10:20   6:25
  66.  041 H Jodi Knox Greensboro NC 31 F 2:15:39    10:21   6:26
  67.  042 H Michelle Townsend High Point NC 37 F 2:16:19    10:24   6:28
  68.  009 H Jennifer Watson Mount Airy NC 28 F 2:16:20    10:24   6:28
  69.  065 H Zander Gainey High Point NC 18 M 2:16:55    10:27   6:30
  70.  018 H Jason Tew Greensboro NC 41 M 2:16:56    10:27   6:30
  71.  103 H Stacey Combs Winston-Salem NC 30 F 2:18:08    10:33   6:33
  72.  054 H Dea Hammesfahr Booneville NC 39 F 2:21:53    10:50   6:44
  73.  055 H Brian Hammesfahr Booneville NC 38 M 2:21:54    10:50   6:44
  74.  036 H Bruce Corregan Mount Airy NC 70 M 2:22:39    10:53   6:46
  75.  071 H Lisa Warren Taylorsville NC 42 F 2:26:38    11:12   6:57
  76.  069 H Robin Fairchild Taylorsville NC 37 F 2:26:39    11:12   6:58
  77.  101 H Ann Hiatt Kernersville NC 52 F 2:26:47    11:12   6:58
  78.  025 H Sherry Smith Ennice NC 57 F 2:28:16    11:19   7:02
  79.  100 H Jennifer Riska Mount Airy NC 47 F 2:31:02    11:32   7:10
  80.  059 H Brendon Evans Lowgap NC 35 M 2:31:34    11:34   7:12
  81.  035 H Joseph Smith Pilot Mountain NC 45 M 2:33:30    11:43   7:17
  82.  073 H Lora Taraban Morivan Falls NC 47 F 2:33:49    11:44   7:18
  83.  002 H Kristen Morrison Taylorsville NC 30 F 2:34:30    11:48   7:20
  84.  072 H Deanna Pennell Taylorsville NC 37 F 2:34:31    11:48   7:20
  85.  051 H Joan Hernandez Flushing NY 47 F 2:35:11    11:51   7:22
  86.  057 H Ellen Sansone Franklin Square NY 52 F 2:35:12    11:51   7:22
  87.  022 H Brandon Roberson Concord NC 29 M 2:38:18    12:05   7:31
  88.  023 H Whitney Ferrell Winston Salem NC 26 F 2:38:27    12:06   7:31
  89.  020 H Jo Ann Tew Ararat NC 47 F 2:38:35    12:06   7:31
  90.  052 H Emily Roten Raleigh NC 34 F 2:40:14    12:14   7:36                                                                                                    Page 4
  91.  021 H Alton Tew Ararat NC 50 M 3:24:31    15:36   9:42
  92.  066 H Peggy Tew Ararat NC 68 F 3:42:20    16:58  10:33
  93.  019 H Cyndi Tew Greensboro NC 40 F 3:42:28    16:59  10:33
  94.  062 H Lisa Tew Fuquay Varina NC 45 F 3:42:33    16:59  10:33
94 records processed.
Advertisements

November 12, 2011 - Posted by | Uncategorized

No comments yet.

Leave a Reply

Fill in your details below or click an icon to log in:

WordPress.com Logo

You are commenting using your WordPress.com account. Log Out / Change )

Twitter picture

You are commenting using your Twitter account. Log Out / Change )

Facebook photo

You are commenting using your Facebook account. Log Out / Change )

Google+ photo

You are commenting using your Google+ account. Log Out / Change )

Connecting to %s

%d bloggers like this: